Location: Fours
(44.3167°N, 6.7000°E)
Time: 08:46:59
(UTC+00:00)

Okean O Rocket - Pass Details

Date: 30 November 2020
Orbit: 622 x 645 km, 98.2° (Epoch: 25 January)

Event Time Altitude Azimuth Distance (km) Brightness Sun altitude
Rises 17:33:53 0° 185° (S) 2,894 5.2 -17.1°
Reaches altitude 10° 17:36:11 10° 193° (SSW) 1,995 4.5 -17.5°
Maximum altitude 17:40:14 38° 262° (W) 958 3.1 -18.2°
Drops below altitude 10° 17:44:21 10° 331° (NNW) 2,022 4.4 -18.9°
Sets 17:46:42 0° 340° (NNW) 2,939 5.1 -19.3°
